Meteo Giornale » Osservazioni meteo Cina » Dalian
ore: 05:30 - Osservazioni Meteo Dalian
Lat. 38° 54' N Lon. 121° 38' E Alt. 97 metri s.l.m.
22 °C
Sereno
Temp. 24 Ore
22 °C
29 °C
Nord
7.2 Km/h
Dew point 16 °C
Umidità 68 %
Visibilità 10 Km
Il sole sorge alle ore 05:22
Il sole tramonta alle ore 18:25
| Data e Ora | Cielo e Fenomeni | T °C | DP °C | Um. % | Pres. hPa | Vis. km | Vento km/h | |
|---|---|---|---|---|---|---|---|---|
| Oggi h: 05:30 | Sereno | 22 | 16 | 68 | 1014 | 10 | N 7.2 | |
| Oggi h: 05:00 | Sereno | 22 | 16 | 68 | 1014 | 10 | N 10.8 | |
| Oggi h: 04:30 | Sereno | 22 | 16 | 68 | 1013 | 10 | N 10.8 | |
| Oggi h: 04:00 | Sereno | 22 | 16 | 68 | 1013 | 10 | N 10.8 | |
| Oggi h: 03:30 | Sereno | 22 | 15 | 64 | 1013 | 10 | N 10.8 | |
| Oggi h: 03:00 | Sereno | 23 | 15 | 60 | 1013 | 10 | N 10.8 | |
| Oggi h: 02:30 | Sereno | 23 | 15 | 60 | 1013 | 10 | N 10.8 | |
| Oggi h: 02:00 | Sereno | 23 | 15 | 60 | 1013 | 10 | N/NO 14.4 | |
| Oggi h: 01:30 | Sereno | 23 | 16 | 64 | 1013 | 10 | N/NO 14.4 | |
| Oggi h: 01:00 | Sereno | 23 | 16 | 64 | 1013 | 10 | N/NO 10.8 | |
| Oggi h: 00:30 | Sereno | 24 | 16 | 60 | 1013 | 10 | N 10.8 | |
| Oggi h: 00:00 | Sereno | 24 | 16 | 60 | 1013 | 10 | N 14.4 | |
| Ieri h: 23:30 | Sereno | 24 | 16 | 60 | 1013 | 10 | N 10.8 | |
| Ieri h: 23:00 | Sereno | 24 | 16 | 60 | 1013 | 10 | N 10.8 | |
| Ieri h: 22:30 | Sereno | 24 | 16 | 60 | 1013 | 10 | N 10.8 | |
| Ieri h: 22:00 | Sereno | 25 | 16 | 57 | 1013 | 10 | N 10.8 | |
| Ieri h: 21:30 | Sereno | 25 | 17 | 61 | 1013 | 10 | N 7.2 | |
| Ieri h: 21:00 | Sereno | 25 | 17 | 61 | 1013 | 10 | N 10.8 | |
| Ieri h: 20:30 | Sereno | 25 | 17 | 61 | 1012 | 10 | N 7.2 | |
| Ieri h: 20:00 | Sereno | 25 | 17 | 61 | 1012 | 10 | N 10.8 | |
| Ieri h: 19:30 | Sereno | 25 | 18 | 65 | 1012 | 10 | N 10.8 | |
| Ieri h: 19:00 | Sereno | 26 | 17 | 57 | 1011 | 10 | N 10.8 | |
| Ieri h: 18:30 | Sereno | 26 | 17 | 57 | 1011 | 10 | N/NO 10.8 | |
| Ieri h: 18:00 | Sereno | 27 | 16 | 50 | 1011 | 10 | N/NO 14.4 | |
| Ieri h: 17:30 | Sereno | 28 | 16 | 48 | 1011 | 10 | N 14.4 | |
| Ieri h: 17:00 | Sereno | 28 | 16 | 48 | 1010 | 10 | N 18 | |
| Ieri h: 16:30 | Sereno | 28 | 16 | 48 | 1010 | 10 | N/NO 18 | |
| Ieri h: 16:00 | Poco Nuvoloso | 29 | 16 | 45 | 1010 | 10 | N 18 | |
| Ieri h: 15:30 | Poco Nuvoloso | 29 | 16 | 45 | 1010 | 10 | N 21.6 | |
| Ieri h: 15:00 | Poco Nuvoloso | 29 | 17 | 48 | 1010 | 10 | N/NO 21.6 | |
| Ieri h: 14:30 | Poco Nuvoloso | 29 | 20 | 58 | 1010 | 10 | N 18 | |
| Ieri h: 14:00 | Poco Nuvoloso | 29 | 21 | 62 | 1010 | 10 | NO 21.6 | |
| Ieri h: 13:30 | Nuvoloso | 29 | 21 | 62 | 1010 | 10 | NO 18 | |
| Ieri h: 13:00 | Poco Nuvoloso | 29 | 22 | 66 | 1010 | 10 | O/NO 18 | |
| Ieri h: 12:30 | Poco Nuvoloso | 29 | 22 | 66 | 1010 | 10 | N/NO 14.4 | |
| Ieri h: 12:00 | Poco Nuvoloso | 29 | 21 | 62 | 1010 | 10 | N 10.8 | |
| Ieri h: 11:30 | Poco Nuvoloso | 28 | 22 | 69 | 1010 | 10 | N 10.8 | |
| Ieri h: 11:00 | Poco Nuvoloso | 27 | 21 | 69 | 1011 | 10 | N/NO 10.8 | |
| Ieri h: 10:30 | Poco Nuvoloso | 27 | 21 | 69 | 1011 | 10 | N 10.8 | |
| Ieri h: 10:00 | Poco Nuvoloso | 27 | 21 | 69 | 1010 | 10 | N/NO 10.8 | |
| Ieri h: 09:30 | Poco Nuvoloso | 27 | 20 | 65 | 1010 | 10 | N/NE 14.4 | |
| Ieri h: 09:00 | Poco Nuvoloso | 26 | 21 | 73 | 1010 | 8 | N/NO 14.4 | |
| Ieri h: 08:30 | Foschia | 25 | 22 | 83 | 1010 | 5 | N 10.8 | |
| Ieri h: 08:00 | Foschia | 24 | 22 | 88 | 1010 | 5 | N/NO 14.4 | |
| Ieri h: 07:30 | Foschia | 24 | 22 | 88 | 1010 | 3 | N/NO 10.8 | |
| Ieri h: 07:00 | Foschia | 23 | 22 | 94 | 1010 | 3 | N 3.6 | |



